TimeCST,TemperatureF,Dew PointF,Humidity,Sea Level PressureIn,VisibilityMPH,Wind Direction,Wind SpeedMPH,Gust SpeedMPH,PrecipitationIn,Events,Conditions,WindDirDegrees,DateUTC
12:53 AM,44.1,35.1,71,30.29,10.0,NNE,6.9,-,N/A,,Clear,20,2012-11-15 06:53:00
1:53 AM,42.1,34.0,73,30.28,10.0,North,6.9,-,N/A,,Clear,360,2012-11-15 07:53:00
2:53 AM,42.1,34.0,73,30.28,10.0,North,4.6,-,N/A,,Clear,350,2012-11-15 08:53:00
3:53 AM,41.0,34.0,76,30.26,10.0,North,5.8,-,N/A,,Clear,10,2012-11-15 09:53:00
4:53 AM,41.0,34.0,76,30.27,10.0,North,4.6,-,N/A,,Clear,360,2012-11-15 10:53:00
5:53 AM,39.0,34.0,82,30.29,10.0,NNW,5.8,-,N/A,,Clear,340,2012-11-15 11:53:00
6:53 AM,39.9,35.1,83,30.30,10.0,North,4.6,-,N/A,,Clear,360,2012-11-15 12:53:00
7:53 AM,45.0,37.9,76,30.31,10.0,North,6.9,-,N/A,,Clear,10,2012-11-15 13:53:00
8:53 AM,51.1,39.0,63,30.33,10.0,NE,8.1,-,N/A,,Clear,50,2012-11-15 14:53:00
9:53 AM,54.0,37.9,55,30.33,10.0,NE,6.9,-,N/A,,Clear,40,2012-11-15 15:53:00
10:53 AM,57.9,37.0,46,30.31,10.0,North,6.9,-,N/A,,Clear,10,2012-11-15 16:53:00
11:53 AM,61.0,36.0,39,30.28,10.0,Variable,6.9,-,N/A,,Clear,0,2012-11-15 17:53:00
12:53 PM,64.0,35.1,34,30.25,10.0,NNE,6.9,-,N/A,,Clear,30,2012-11-15 18:53:00
1:53 PM,66.0,35.1,32,30.23,10.0,ENE,5.8,-,N/A,,Clear,60,2012-11-15 19:53:00
2:53 PM,66.0,32.0,28,30.22,10.0,ENE,8.1,-,N/A,,Clear,60,2012-11-15 20:53:00
3:53 PM,66.0,33.1,29,30.22,10.0,NNE,5.8,-,N/A,,Clear,30,2012-11-15 21:53:00
4:53 PM,59.0,37.0,44,30.22,10.0,North,5.8,-,N/A,,Clear,360,2012-11-15 22:53:00
5:53 PM,53.1,39.9,61,30.22,10.0,North,4.6,-,N/A,,Clear,350,2012-11-15 23:53:00
6:53 PM,52.0,37.9,59,30.25,9.0,North,3.5,-,N/A,,Clear,360,2012-11-16 00:53:00
7:53 PM,52.0,37.0,57,30.27,10.0,North,4.6,-,N/A,,Clear,360,2012-11-16 01:53:00
8:53 PM,50.0,37.9,63,30.28,10.0,North,4.6,-,N/A,,Clear,10,2012-11-16 02:53:00
9:53 PM,50.0,39.9,68,30.28,10.0,North,8.1,-,N/A,,Clear,10,2012-11-16 03:53:00
10:53 PM,50.0,39.9,68,30.28,10.0,North,6.9,-,N/A,,Clear,10,2012-11-16 04:53:00
11:53 PM,48.9,41.0,74,30.28,10.0,North,6.9,-,N/A,,Clear,360,2012-11-16 05:53:00